OpenBCM V1.07b12 (Linux)

Packet Radio Mailbox

DB0FHN

[JN59NK Nuernberg]

 Login: GUEST





  
UA9FBV > KEPS     25.04.03 08:01l 276 Lines 7262 Bytes #999 (0) @ AMSAT
BID : ORB03114.D
Read: DB0FHN GUEST
Subj: Orbital Elements  03114.MICROS
Path: DB0FHN<DB0ZWI<DB0HOT<OK0PKL<OK0PPL<RZ6HXA<UA9FBV
Sent: 030425/0509Z @:UA9FBV.PRM.RUS.AS #:33971 [Perm] GATEWAY $:ORB03114.D
From: UA9FBV@UA9FBV.PRM.RUS.AS
To  : KEPS@AMSAT

HR AMSAT ORBITAL ELEMENTS FOR THE MICROSATS
FROM WA5QGD FORT WORTH,TX April 24, 2003
SEND SUBSCRIBE/UNSUBSCRIBE TO majordomo@amsat.org ONLY
BID: ORB03114.D
TO ALL RADIO AMATEURS BT

Satellite: UO-14
Catalog number: 20437
Epoch time:      03114.65424921
Element set:     216
Inclination:       98.2618 deg
RA of node:       155.1227 deg
Eccentricity:    0.0011412
Arg of perigee:    13.2828 deg
Mean anomaly:     346.8653 deg
Mean motion:   14.31259588 rev/day
Decay rate:        7.5e-07 rev/day^2
Epoch rev:           69180
Checksum:              290

Satellite: AO-16
Catalog number: 20439
Epoch time:      03113.67982229
Element set:    0883
Inclination:      098.3046 deg
RA of node:       166.2468 deg
Eccentricity:    0.0011401
Arg of perigee:   023.0248 deg
Mean anomaly:     337.1491 deg
Mean motion:   14.31498145 rev/day
Decay rate:       1.49e-06 rev/day^2
Epoch rev:           69170
Checksum:              301

Satellite: WO-18
Catalog number: 20441
Epoch time:      03114.21610788
Element set:      65
Inclination:       98.3207 deg
RA of node:       169.9727 deg
Eccentricity:    0.0012305
Arg of perigee:    21.2358 deg
Mean anomaly:     338.9332 deg
Mean motion:   14.31578712 rev/day
Decay rate:        8.9e-07 rev/day^2
Epoch rev:           69183
Checksum:              300

Satellite: LO-19
Catalog number: 20442
Epoch time:      03113.69793733
Element set:    0999
Inclination:      098.3368 deg
RA of node:       172.6168 deg
Eccentricity:    0.0012617
Arg of perigee:   021.1922 deg
Mean anomaly:     338.9782 deg
Mean motion:   14.31742956 rev/day
Decay rate:       1.18e-06 rev/day^2
Epoch rev:           69181
Checksum:              333

Satellite: UO-22
Catalog number: 21575
Epoch time:      03113.95706901
Element set:    0786
Inclination:      098.1481 deg
RA of node:       102.8711 deg
Eccentricity:    0.0006834
Arg of perigee:   306.5011 deg
Mean anomaly:     053.5548 deg
Mean motion:   14.39200741 rev/day
Decay rate:       1.91e-06 rev/day^2
Epoch rev:           61754
Checksum:              283

Satellite: KO-23
Catalog number: 22077
Epoch time:      03113.93929209
Element set:    0253
Inclination:      066.0837 deg
RA of node:       350.9260 deg
Eccentricity:    0.0015550
Arg of perigee:   259.6680 deg
Mean anomaly:     100.2585 deg
Mean motion:   12.86410729 rev/day
Decay rate:       -3.7e-07 rev/day^2
Epoch rev:           50258
Checksum:              294

Satellite: AO-27
Catalog number: 22825
Epoch time:      03114.17234470
Element set:     539
Inclination:       98.2660 deg
RA of node:       140.5580 deg
Eccentricity:    0.0009598
Arg of perigee:    67.9897 deg
Mean anomaly:     292.2301 deg
Mean motion:   14.28965779 rev/day
Decay rate:        7.4e-07 rev/day^2
Epoch rev:           49910
Checksum:              335

Satellite: IO-26
Catalog number: 22826
Epoch time:      03114.89259926
Element set:     343
Inclination:       98.2695 deg
RA of node:       142.3850 deg
Eccentricity:    0.0010072
Arg of perigee:    65.4672 deg
Mean anomaly:     294.7557 deg
Mean motion:   14.29191238 rev/day
Decay rate:        9.6e-07 rev/day^2
Epoch rev:           49925
Checksum:              333

Satellite: KO-25
Catalog number: 22828
Epoch time:      03114.15745902
Element set:     479
Inclination:       98.2632 deg
RA of node:       141.9512 deg
Eccentricity:    0.0010962
Arg of perigee:    48.8859 deg
Mean anomaly:     311.3267 deg
Mean motion:   14.29529495 rev/day
Decay rate:        7.4e-07 rev/day^2
Epoch rev:           46735
Checksum:              324

Satellite: TO-31
Catalog number: 25396
Epoch time:      03113.91967899
Element set:    0950
Inclination:      098.6172 deg
RA of node:       189.7309 deg
Eccentricity:    0.0001473
Arg of perigee:   324.0858 deg
Mean anomaly:     036.0229 deg
Mean motion:   14.23530544 rev/day
Decay rate:       -4.3e-07 rev/day^2
Epoch rev:           24868
Checksum:              324

Satellite: GO-32
Catalog number: 25397
Epoch time:      03113.96662678
Element set:    0188
Inclination:      098.6113 deg
RA of node:       188.5723 deg
Eccentricity:    0.0001052
Arg of perigee:   006.2329 deg
Mean anomaly:     353.8866 deg
Mean motion:   14.22974445 rev/day
Decay rate:        5.0e-07 rev/day^2
Epoch rev:           24865
Checksum:              320

Satellite: UO-36
Catalog number: 25693
Epoch time:      03114.64321399
Element set:     908
Inclination:       64.5581 deg
RA of node:       171.5988 deg
Eccentricity:    0.0026228
Arg of perigee:   312.4596 deg
Mean anomaly:      47.4289 deg
Mean motion:   14.76457554 rev/day
Decay rate:       2.36e-06 rev/day^2
Epoch rev:           21586
Checksum:              340

Satellite: AO-37
Catalog number: 26065
Epoch time:      03114.82013119
Element set:     788
Inclination:      100.1983 deg
RA of node:       181.3596 deg
Eccentricity:    0.0037963
Arg of perigee:   104.2910 deg
Mean anomaly:     256.2489 deg
Mean motion:   14.35539744 rev/day
Decay rate:       1.23e-06 rev/day^2
Epoch rev:           16974
Checksum:              310

Satellite: SO-41
Catalog number: 26545
Epoch time:      03114.65787872
Element set:     442
Inclination:       64.5588 deg
RA of node:       191.8467 deg
Eccentricity:    0.0047022
Arg of perigee:   228.4568 deg
Mean anomaly:     131.2511 deg
Mean motion:   14.79150838 rev/day
Decay rate:      1.210e-05 rev/day^2
Epoch rev:           13884
Checksum:              315

Satellite: MO-46
Catalog number: 26548
Epoch time:      03113.70116544
Element set:     445
Inclination:       64.5567 deg
RA of node:       186.9559 deg
Eccentricity:    0.0040488
Arg of perigee:   228.8726 deg
Mean anomaly:     130.8894 deg
Mean motion:   14.81484806 rev/day
Decay rate:      1.350e-05 rev/day^2
Epoch rev:           13886
Checksum:              340

Satellite: SO-42
Catalog number: 26549
Epoch time:      03113.72602962
Element set:     732
Inclination:       64.5514 deg
RA of node:       199.1531 deg
Eccentricity:    0.0051621
Arg of perigee:   228.0530 deg
Mean anomaly:     131.6171 deg
Mean motion:   14.78075830 rev/day
Decay rate:       8.23e-06 rev/day^2
Epoch rev:           13862
Checksum:              281

Satellite: NO-44
Catalog number: 26931
Epoch time:      03114.39970460
Element set:     457
Inclination:       67.0465 deg
RA of node:        88.7070 deg
Eccentricity:    0.0005946
Arg of perigee:   274.2073 deg
Mean anomaly:      85.8350 deg
Mean motion:   14.29150347 rev/day
Decay rate:       1.01e-06 rev/day^2
Epoch rev:            8161
Checksum:              292

Satellite: AO-49
Catalog number: 27605
Epoch time:      03113.80699158
Element set:     115
Inclination:       64.5585 deg
RA of node:         2.1630 deg
Eccentricity:    0.0034958
Arg of perigee:    83.7121 deg
Mean anomaly:     276.7956 deg
Mean motion:   14.71469784 rev/day
Decay rate:       4.27e-06 rev/day^2
Epoch rev:            1826
Checksum:              323

Satellite: SO-50
Catalog number: 27607
Epoch time:      03113.79661828
Element set:     108
Inclination:       64.5517 deg
RA of node:         3.0823 deg
Eccentricity:    0.0036301
Arg of perigee:    80.1908 deg
Mean anomaly:     280.3289 deg
Mean motion:   14.70045313 rev/day
Decay rate:       7.03e-06 rev/day^2
Epoch rev:            1824
Checksum:              269



Read previous mail | Read next mail


 18.09.2025 10:19:53lGo back Go up